| time (UTC) | temp C | wind direction | speed KPH | gust KPH | rain 1hr cm | rain 24hr cm | rain mn cm | humidity % | barometer mb |
| 20260508093027 | 3 | 317 | 0.0 | 0.0 | 0.00 | 2.39 | 0.00 | 83 | 1008.9 |
| 20260508091525 | 3 | 317 | 0.0 | 0.0 | 0.00 | 2.39 | 0.00 | 81 | 1008.7 |
| 20260508090024 | 3 | 317 | 0.0 | 0.0 | 0.00 | 2.39 | 0.00 | 80 | 1008.8 |
| 20260508084522 | 3 | 317 | 0.0 | 1.6 | 0.00 | 2.41 | 0.00 | 81 | 1008.8 |
| 20260508083021 | 3 | 317 | 0.0 | 1.6 | 0.00 | 2.41 | 0.00 | 80 | 1008.7 |
| 20260508081518 | 3 | 317 | 0.0 | 0.0 | 0.00 | 2.41 | 0.00 | 79 | 1008.3 |
| 20260508080015 | 4 | 317 | 0.0 | 0.0 | 0.00 | 2.41 | 0.00 | 77 | 1008.2 |
| 20260508074511 | 5 | 317 | 0.0 | 0.0 | 0.00 | 2.46 | 0.00 | 76 | 1007.8 |
| 20260508073008 | 5 | 317 | 0.0 | 0.0 | 0.00 | 2.46 | 0.00 | 73 | 1007.7 |
| 20260508071508 | 5 | 317 | 0.0 | 0.0 | 0.00 | 2.46 | 0.00 | 71 | 1007.5 |
| 20260508070006 | 6 | 317 | 0.0 | 0.0 | 0.00 | 2.46 | 0.00 | 70 | 1007.2 |
| 20260508064609 | 6 | 317 | 0.0 | 0.0 | 0.00 | 2.46 | 0.00 | 64 | 1007.0 |
| 20260508063056 | 7 | 317 | 0.0 | 0.0 | 0.00 | 2.46 | 0.00 | 63 | 1007.2 |
| 20260508061559 | 7 | 317 | 0.0 | 3.2 | 0.00 | 2.46 | 0.00 | 59 | 1007.2 |
| 20260508060049 | 7 | 317 | 0.0 | 6.4 | 0.00 | 2.46 | 0.00 | 59 | 1007.1 |
| 20260508054547 | 8 | 312 | 3.2 | 6.4 | 0.00 | 2.46 | 0.00 | 58 | 1007.2 |
| 20260508053050 | 8 | 298 | 1.6 | 4.8 | 0.00 | 2.46 | 0.00 | 58 | 1007.2 |
| 20260508051540 | 9 | 297 | 3.2 | 8.0 | 0.00 | 2.46 | 0.00 | 54 | 1007.2 |
| 20260508050039 | 9 | 335 | 1.6 | 8.0 | 0.00 | 2.46 | 0.00 | 54 | 1007.2 |
| 20260508044536 | 10 | 292 | 3.2 | 8.0 | 0.00 | 2.46 | 0.00 | 53 | 1007.4 |
| 20260508043052 | 10 | 291 | 3.2 | 6.4 | 0.00 | 2.46 | 0.00 | 53 | 1007.2 |
| 20260508041535 | 10 | 338 | 3.2 | 12.9 | 0.00 | 2.46 | 0.00 | 52 | 1007.2 |
| 20260508040031 | 10 | 257 | 6.4 | 12.9 | 0.00 | 2.46 | 0.00 | 53 | 1007.4 |
| 20260508034529 | 10 | 325 | 3.2 | 12.9 | 0.00 | 2.46 | 2.46 | 54 | 1007.3 |
| 20260508033031 | 10 | 313 | 3.2 | 8.0 | 0.00 | 2.46 | 2.46 | 53 | 1007.4 |
| 20260508031528 | 10 | 298 | 1.6 | 4.8 | 0.00 | 2.46 | 2.46 | 53 | 1007.4 |
| 20260508030042 | 10 | 304 | 0.0 | 6.4 | 0.00 | 2.46 | 2.46 | 55 | 1007.5 |
| 20260508024531 | 10 | 311 | 1.6 | 6.4 | 0.00 | 3.56 | 2.46 | 56 | 1007.6 |
| 20260508023025 | 10 | 292 | 1.6 | 8.0 | 0.00 | 3.56 | 2.46 | 54 | 1007.4 |
| 20260508021527 | 10 | 317 | 1.6 | 4.8 | 0.00 | 3.56 | 2.46 | 57 | 1007.6 |
| 20260508020024 | 10 | 307 | 1.6 | 4.8 | 0.00 | 3.56 | 2.46 | 54 | 1007.8 |
| 20260508014524 | 11 | 331 | 3.2 | 8.0 | 0.00 | 3.56 | 2.46 | 52 | 1007.6 |
| 20260508013023 | 11 | 321 | 1.6 | 4.8 | 0.00 | 3.56 | 2.46 | 53 | 1007.5 |
| 20260508011523 | 11 | 303 | 1.6 | 6.4 | 0.00 | 3.56 | 2.46 | 52 | 1007.3 |
| 20260508010026 | 12 | 305 | 1.6 | 8.0 | 0.00 | 3.56 | 2.46 | 49 | 1007.1 |
| 20260508004521 | 12 | 296 | 1.6 | 4.8 | 0.00 | 3.56 | 2.46 | 46 | 1006.9 |
| 20260508003021 | 12 | 328 | 1.6 | 6.4 | 0.00 | 3.56 | 2.46 | 45 | 1006.4 |
| 20260508001520 | 13 | 309 | 0.0 | 12.9 | 0.00 | 3.56 | 2.46 | 44 | 1006.2 |
| 20260508000022 | 13 | 311 | 3.2 | 12.9 | 0.00 | 3.56 | 2.46 | 44 | 1006.0 |
| 20260507234523 | 13 | 310 | 3.2 | 12.9 | 0.00 | 3.56 | 2.46 | 41 | 1005.9 |
| 20260507233021 | 14 | 292 | 6.4 | 19.3 | 0.00 | 3.56 | 2.46 | 41 | 1005.8 |
| 20260507231519 | 15 | 317 | 4.8 | 9.7 | 0.00 | 3.56 | 2.46 | 39 | 1005.7 |
| 20260507230021 | 15 | 319 | 4.8 | 16.1 | 0.00 | 3.56 | 2.46 | 41 | 1005.6 |
| 20260507224517 | 15 | 313 | 6.4 | 14.5 | 0.00 | 3.56 | 2.46 | 41 | 1005.5 |
| 20260507223017 | 16 | 298 | 6.4 | 14.5 | 0.00 | 3.56 | 2.46 | 38 | 1005.1 |
| 20260507221516 | 16 | 284 | 4.8 | 22.5 | 0.00 | 3.56 | 2.46 | 37 | 1004.9 |
| 20260507220016 | 16 | 298 | 3.2 | 12.9 | 0.00 | 3.56 | 2.46 | 39 | 1004.9 |
| 20260507214515 | 16 | 290 | 3.2 | 17.7 | 0.00 | 3.56 | 2.46 | 38 | 1004.9 |
| 20260507213018 | 16 | 308 | 6.4 | 17.7 | 0.00 | 3.56 | 2.46 | 39 | 1004.7 |
| 20260507211514 | 16 | 299 | 11.3 | 19.3 | 0.00 | 3.56 | 2.46 | 35 | 1004.7 |
| 20260507210013 | 16 | 286 | 8.0 | 25.7 | 0.00 | 3.56 | 2.46 | 34 | 1004.5 |
| 20260507204512 | 17 | 286 | 9.7 | 22.5 | 0.00 | 3.56 | 2.46 | 39 | 1004.5 |
| 20260507203010 | 17 | 319 | 8.0 | 22.5 | 0.00 | 3.56 | 2.46 | 39 | 1004.3 |
| 20260507201513 | 17 | 300 | 4.8 | 20.9 | 0.00 | 3.56 | 2.46 | 40 | 1004.3 |
| 20260507200008 | 17 | 338 | 9.7 | 25.7 | 0.00 | 3.56 | 2.46 | 36 | 1004.4 |
| 20260507194508 | 17 | 306 | 8.0 | 19.3 | 0.00 | 3.56 | 2.46 | 37 | 1004.5 |
| 20260507193006 | 17 | 336 | 9.7 | 24.1 | 0.00 | 3.56 | 2.46 | 37 | 1004.7 |
| 20260507191504 | 17 | 283 | 3.2 | 17.7 | 0.00 | 3.56 | 2.46 | 38 | 1004.8 |
| 20260507190006 | 17 | 29 | 8.0 | 16.1 | 0.00 | 3.56 | 2.46 | 39 | 1004.9 |
| 20260507184608 | 17 | 335 | 3.2 | 17.7 | 0.00 | 3.56 | 2.46 | 42 | 1005.1 |
| 20260507183104 | 17 | 286 | 4.8 | 16.1 | 0.00 | 3.56 | 2.46 | 41 | 1005.4 |
| 20260507181556 | 17 | 344 | 6.4 | 24.1 | 0.00 | 3.56 | 2.46 | 43 | 1005.6 |
| 20260507180056 | 16 | 290 | 6.4 | 19.3 | 0.00 | 3.56 | 2.46 | 41 | 1005.6 |
| 20260507174554 | 16 | 285 | 6.4 | 17.7 | 0.00 | 3.56 | 2.46 | 41 | 1005.7 |
| 20260507173053 | 16 | 286 | 11.3 | 22.5 | 0.00 | 3.56 | 2.46 | 39 | 1005.8 |
| 20260507171552 | 16 | 310 | 8.0 | 27.4 | 0.00 | 3.56 | 2.46 | 46 | 1005.8 |
| 20260507170051 | 16 | 303 | 6.4 | 20.9 | 0.00 | 3.56 | 2.46 | 53 | 1006.0 |
| 20260507164604 | 16 | 267 | 3.2 | 9.7 | 0.00 | 3.56 | 2.46 | 59 | 1006.1 |
| 20260507163044 | 15 | 331 | 3.2 | 20.9 | 0.00 | 3.56 | 2.46 | 60 | 1006.1 |
| 20260507161547 | 15 | 311 | 9.7 | 20.9 | 0.00 | 3.56 | 2.46 | 59 | 1006.4 |
| 20260507160045 | 15 | 291 | 1.6 | 12.9 | 0.00 | 3.56 | 2.46 | 67 | 1006.5 |
| 20260507154639 | 14 | 281 | 4.8 | 9.7 | 0.00 | 3.56 | 2.46 | 65 | 1006.7 |
| 20260507153035 | 14 | 23 | 4.8 | 9.7 | 0.00 | 3.56 | 2.46 | 68 | 1006.9 |
| 20260507151535 | 14 | 304 | 4.8 | 12.9 | 0.00 | 3.56 | 2.46 | 70 | 1006.9 |
| 20260507150035 | 13 | 302 | 6.4 | 17.7 | 0.00 | 3.56 | 2.46 | 71 | 1007.2 |
| 20260507144530 | 14 | 305 | 3.2 | 8.0 | 0.00 | 3.56 | 2.46 | 73 | 1007.1 |
| 20260507143045 | 13 | 324 | 4.8 | 16.1 | 0.00 | 3.56 | 2.46 | 72 | 1007.2 |
| 20260507141528 | 13 | 306 | 6.4 | 16.1 | 0.00 | 3.56 | 2.46 | 73 | 1007.4 |
| 20260507140021 | 12 | 327 | 4.8 | 14.5 | 0.00 | 3.56 | 2.46 | 79 | 1007.4 |
| 20260507134517 | 12 | 284 | 1.6 | 14.5 | 0.00 | 3.56 | 2.46 | 84 | 1007.3 |
| 20260507133013 | 11 | 14 | 4.8 | 9.7 | 2.11 | 3.56 | 2.46 | 91 | 1007.6 |
| 20260507131511 | 10 | 336 | 1.6 | 12.9 | 2.11 | 3.56 | 2.46 | 95 | 1007.5 |
| 20260507130026 | 10 | 317 | 4.8 | 14.5 | 2.13 | 3.56 | 2.46 | 96 | 1007.8 |
| 20260507124507 | 10 | 351 | 1.6 | 4.8 | 2.13 | 3.56 | 2.46 | 97 | 1007.6 |
| 20260507123007 | 10 | 327 | 0.0 | 4.8 | 0.03 | 1.42 | 0.36 | 97 | 1007.5 |
| 20260507121505 | 9 | 329 | 0.0 | 3.2 | 0.03 | 1.42 | 0.36 | 96 | 1007.8 |
| 20260507120005 | 9 | 308 | 0.0 | 4.8 | 0.13 | 1.42 | 0.33 | 96 | 1007.5 |
| 20260507114504 | 8 | 304 | 0.0 | 3.2 | 0.18 | 1.42 | 0.33 | 96 | 1007.5 |
| 20260507113001 | 8 | 304 | 0.0 | 1.6 | 0.18 | 1.42 | 0.33 | 96 | 1007.2 |
| 20260507111601 | 8 | 304 | 0.0 | 1.6 | 0.18 | 1.42 | 0.33 | 96 | 1007.5 |
| 20260507110100 | 8 | 306 | 0.0 | 4.8 | 0.05 | 1.30 | 0.20 | 96 | 1007.7 |
| 20260507104604 | 8 | 302 | 0.0 | 4.8 | 0.08 | 1.24 | 0.15 | 96 | 1007.0 |
| 20260507103056 | 8 | 302 | 0.0 | 3.2 | 0.08 | 1.24 | 0.15 | 95 | 1006.9 |
| 20260507101554 | 8 | 69 | 0.0 | 4.8 | 0.08 | 1.24 | 0.15 | 96 | 1007.2 |
| 20260507100058 | 8 | 286 | 0.0 | 3.2 | 0.08 | 1.24 | 0.15 | 95 | 1007.2 |
| 20260507094550 | 8 | 286 | 0.0 | 3.2 | 0.03 | 1.17 | 0.08 | 95 | 1006.9 |